This is the latest recevied weather packets stored in our database for station/object KE8AFF-13. If no packets are shown the sender has not sent any weather packets the latest 10 day(s).
| Time | Temp. | Humidity | Pressure | Rain* | Wind** | Luminosity | Snow |
|---|---|---|---|---|---|---|---|
| 1777847398 | 15° C | 42% | 1012.5 hPa | 0 mm | - | 180 W/m² | - |
| 1777847097 | 15° C | 42% | 1012.4 hPa | 0 mm | - | 162 W/m² | - |
| 1777846795 | 15° C | 42% | 1012.8 hPa | 0 mm | - | 179 W/m² | - |
| 1777846493 | 15° C | 42% | 1012.7 hPa | 0 mm | - | 203 W/m² | - |
| 1777846190 | 15° C | 42% | 1012.4 hPa | 0 mm | - | 211 W/m² | - |
| 1777845886 | 15° C | 41% | 1012.9 hPa | 0 mm | - | 199 W/m² | - |
| 1777845583 | 15° C | 40% | 1012.7 hPa | 0 mm | - | 203 W/m² | - |
| 1777845280 | 15° C | 41% | 1012.8 hPa | 0 mm | - | 187 W/m² | - |
| 1777844977 | 15° C | 41% | 1012.8 hPa | 0 mm | - | 192 W/m² | - |
| 1777844675 | 15° C | 43% | 1012.8 hPa | 0 mm | - | 200 W/m² | - |
| 1777844372 | 15° C | 41% | 1012.7 hPa | 0 mm | - | 198 W/m² | - |
| 1777844070 | 15.56° C | 41% | 1012.8 hPa | 0 mm | - | 218 W/m² | - |
| 1777843766 | 15.56° C | 41% | 1012.9 hPa | 0 mm | - | 266 W/m² | - |
| 1777843464 | 15.56° C | 40% | 1012.8 hPa | 0 mm | - | 296 W/m² | - |
| 1777843161 | 15.56° C | 39% | 1012.9 hPa | 0 mm | - | 302 W/m² | - |
| 1777842858 | 15.56° C | 41% | 1013 hPa | 0 mm | - | 311 W/m² | - |
| 1777842553 | 15° C | 40% | 1012.9 hPa | 0 mm | - | 311 W/m² | - |
| 1777842251 | 15° C | 40% | 1013.1 hPa | 0 mm | - | 239 W/m² | - |
| 1777841951 | 15.56° C | 41% | 1013.1 hPa | 0 mm | - | 339 W/m² | - |
| 1777841649 | 15° C | 41% | 1013.1 hPa | 0 mm | - | 251 W/m² | - |
| 1777841344 | 15.56° C | 40% | 1013 hPa | 0 mm | - | 328 W/m² | - |
| 1777841042 | 15.56° C | 41% | 1013 hPa | 0 mm | - | 274 W/m² | - |
| 1777840739 | 15° C | 42% | 1013.1 hPa | 0 mm | - | 239 W/m² | - |
| 1777840436 | 15.56° C | 41% | 1013.2 hPa | 0 mm | - | 239 W/m² | - |
| 1777840133 | 15.56° C | 40% | 1013.3 hPa | 0 mm | - | 408 W/m² | - |
* Rain latest hour (hover to see other rain measurements)
** Current wind speed in m/s (hover to see current wind gust speed)